Content
SEND FEEDBACK

Daily
Averages
Monthly
Summary
French Polynesia

PAPEETE, FRENCH POLYNESIA


Home > Oceania > French Polynesia
Elevation: 2 meters     Latitude: 17 33S     Longitude: 149 36W

WEATHER
 
SELECT A DAY
Number of Records: 213,164;   Date Range: 6/30/96 - 10/1/14
 
SHARE

PRINT THIS DATA

[ ← Previous Day ]
WEATHER ALMANAC - 17 APRIL, 2013
[ Next Day → ]
[ °F ]   °C
Weather ElementAverageHighLow
Temperature27.6 °C31 °C (12:00 pm)24 °C (5:30 am)
Dewpoint22.3 °C24 °C (12:30 pm)21 °C (12:30 am)
Humidity72.3 %83 % (5:30 am)58 % (11:00 am)
Barometer1012.9 hPa1014.2 hPa (12:30 am)1011.2 hPa (12:30 pm)
Wind Speed9 km/h36 km/h (2:00 pm)
Weather ElementAverage
Visibility11.3 km
Wind DirectionENE (79.4 °)

Weather ElementTotal
Precipitation---
Cooling Degree Days9.2 (Base 18.3)
Growing Degree Days17.5 (Base 10)
Averaged from 52 records on 17 April, 2013
WEATHER CONDITIONS BREAKOUT
WIND DIRECTION BREAKOUT
WEATHER BY HOUR - 17 APRIL, 2013
[ °F ]   °C
Local TimeTemperatureDewpointHumidityBarometerVisibilityWind DirectionWind SpeedGust SpeedPrecipitationEventsConditions
12:30 AM25 °C21 °C78 %1014.2 hPa10 kmVariable1.9 km/hScattered Clouds
1:00 AM25 °C21 °C78 %1013.2 hPa10 kmVariable3.7 km/hScattered Clouds
1:30 AM25 °C21 °C78 %1013.2 hPa10 kmCalmScattered Clouds
2:00 AM24.4 °C21.1 °C77 %1013.5 hPa19.3 kmSouth (170°)5.6 km/hScattered Clouds
2:00 AM25 °C21 °C78 %1013.2 hPa10 kmSouth (170°)5.6 km/hScattered Clouds
2:30 AM25 °C21 °C78 %1013.2 hPa10 kmCalmScattered Clouds
3:00 AM25 °C21 °C78 %1013.2 hPa10 kmVariable5.6 km/hScattered Clouds
3:30 AM25 °C21 °C78 %1013.2 hPa10 kmVariable5.6 km/h
4:00 AM25 °C21 °C78 %1013.2 hPa10 kmSE (130°)3.7 km/hPartly Cloudy
4:30 AM25 °C21 °C78 %1013.2 hPa10 kmCalm
5:00 AM25 °C21 °C78 %1013.2 hPa10 kmVariable3.7 km/h
5:30 AM24 °C21 °C83 %1013.2 hPa10 kmCalm
6:00 AM25 °C21 °C78 %1013.2 hPa10 kmVariable1.9 km/hMostly Cloudy
6:30 AM25 °C21 °C78 %1014.2 hPa10 kmSouth (170°)5.6 km/hMostly Cloudy
7:00 AM25 °C22 °C83 %1014.2 hPa10 kmEast (80°)5.6 km/hMostly Cloudy
7:30 AM26 °C22 °C78 %1014.2 hPa10 kmEast (100°)3.7 km/hMostly Cloudy
8:00 AM28.3 °C21.7 °C59 %1014.2 hPa19.3 kmENE (60°)13 km/hPartly Cloudy
8:00 AM28 °C22 °C70 %1014.2 hPa10 kmENE (60°)13 km/hMostly Cloudy
8:30 AM29 °C22 °C66 %1014.2 hPa10 kmNNE (30°)9.3 km/hMostly Cloudy
9:00 AM29 °C22 °C66 %1014.2 hPa10 kmNNE (20°)11.1 km/hMostly Cloudy
9:30 AM29 °C23 °C70 %1014.2 hPa10 kmNNE (20°)9.3 km/hMostly Cloudy
10:00 AM29 °C22 °C66 %1014.2 hPa10 kmSE (140°)7.4 km/hMostly Cloudy
11:00 AM29.4 °C22.2 °C58 %1013.5 hPa19.3 kmSSW (200°)13 km/hScattered Clouds
11:00 AM29 °C22 °C66 %1013.2 hPa10 kmSouth (190°)13 km/hMostly Cloudy
11:30 AM30 °C23 °C66 %1013.2 hPa10 kmSSW (210°)5.6 km/hMostly Cloudy
12:00 PM31 °C23 °C62 %1012.2 hPa10 kmNE (40°)14.8 km/hMostly Cloudy
12:30 PM31 °C24 °C66 %1011.2 hPa10 kmNE (50°)20.4 km/hMostly Cloudy
1:00 PM31 °C23 °C62 %1011.2 hPa10 kmNE (50°)22.2 km/hMostly Cloudy
1:30 PM31 °C23 °C62 %1011.2 hPa10 kmNE (50°)20.4 km/hMostly Cloudy
2:00 PM30 °C23.3 °C60 %1011.2 hPa19.3 kmNE (50°)36 km/hScattered Clouds
2:00 PM30 °C23 °C66 %1011.2 hPa10 kmNE (50°)18.5 km/hMostly Cloudy
2:30 PM30 °C24 °C70 %1011.2 hPa10 kmNE (50°)16.7 km/hMostly Cloudy
3:00 PM30 °C24 °C70 %1011.2 hPa10 kmNE (50°)14.8 km/hMostly Cloudy
3:30 PM30 °C23 °C66 %1011.2 hPa10 kmNE (50°)14.8 km/hScattered Clouds
4:00 PM30 °C23 °C66 %1011.2 hPa10 kmNE (50°)13 km/hScattered Clouds
4:30 PM30 °C23 °C66 %1011.2 hPa10 kmVariable3.7 km/hScattered Clouds
5:00 PM28.9 °C23.3 °C64 %1011.9 hPa19.3 kmSouth (190°)28.8 km/hPartly Cloudy
5:00 PM29 °C23 °C70 %1011.2 hPa10 kmSouth (190°)14.8 km/hScattered Clouds
5:30 PM29 °C23 °C70 %1011.2 hPa10 kmSouth (170°)7.4 km/hScattered Clouds
6:00 PM28 °C23 °C74 %1011.2 hPa10 kmNorth (360°)7.4 km/hScattered Clouds
6:30 PM28 °C23 °C74 %1012.2 hPa10 kmNE (40°)5.6 km/hPartly Cloudy
7:00 PM28 °C23 °C74 %1012.2 hPa10 kmSouth (170°)5.6 km/hScattered Clouds
7:30 PM27 °C23 °C79 %1013.2 hPa10 kmEast (80°)9.3 km/hScattered Clouds
8:00 PM27.8 °C22.8 °C68 %1013.5 hPa19.3 kmENE (60°)5.6 km/hScattered Clouds
8:00 PM28 °C23 °C74 %1013.2 hPa10 kmVariable5.6 km/hScattered Clouds
8:30 PM27 °C23 °C79 %1013.2 hPa10 kmESE (110°)5.6 km/hScattered Clouds
9:30 PM27 °C23 °C79 %1013.2 hPa10 kmVariable3.7 km/hScattered Clouds
10:00 PM27 °C23 °C79 %1013.2 hPa10 kmCalmScattered Clouds
10:30 PM27 °C23 °C79 %1013.2 hPa10 kmVariable3.7 km/hScattered Clouds
11:00 PM26.7 °C22.8 °C73 %1013.5 hPa19.3 kmSouth (180°)7.4 km/hScattered Clouds
11:00 PM26 °C23 °C83 %1013.2 hPa10 kmSouth (180°)7.4 km/hScattered Clouds
11:30 PM26 °C22 °C78 %1012.2 hPa10 kmSSE (160°)5.6 km/hPartly Cloudy
Hourly data recorded from NTAA, located 0 kilometers away from Papeete, French Polynesia







STORIES FROM OUR PARTNERS